Temperature
16 16 16 17 17 18 20 23 25 25 26 26 26 26 25 23 23 20 19 18 18 18 18 18 18 17 17 17 17 17 17 17 17 17 17 17 16 16 16 16 16 16 16 16 16 16 16 16 16
16 16 16 17 18 19 21 23 24 25 25 24 25 25 24 22 20 19 18 18 18 18 18 18 17 17 17 17 17 17 17 17 17 17 17 16 16 16 16 16 16 16 16 16 16 16 16 16 15
15 16 17 18 19 20 22 24 24 24 24 24 24 24 23 21 20 19 18 18 17 17 17 17 17 17 17 17 17 17 17 17 17 16 16 16 16 16 16 16 16 16 16 15 15 15 15 15 15
15 16 17 18 19 21 23 24 24 23 24 24 24 23 21 20 19 18 18 17 17 17 17 17 17 17 17 17 17 17 16 16 16 16 16 16 16 16 16 16 16 16 15 15 15 15 15 15 15
15 16 17 18 19 22 24 24 24 23 23 23 23 22 19 19 19 18 18 17 17 16 17 17 17 17 17 17 16 16 16 16 16 16 16 16 16 16 16 15 15 15 15 15 15 15 15 15 15
15 17 17 18 20 22 23 24 24 23 23 23 23 22 18 18 18 18 17 17 17 16 16 16 16 16 16 16 16 16 16 16 16 16 16 16 16 16 16 16 16 15 15 15 15 15 15 15 15
16 16 17 19 20 21 23 24 23 23 23 23 23 21 18 17 17 17 17 17 16 16 16 16 16 16 16 16 16 16 16 16 16 16 16 15 15 15 15 15 15 15 15 15 15 15 15 15 15
15 16 18 19 20 21 23 23 23 23 23 23 22 21 18 17 17 17 16 16 16 16 15 15 16 16 16 16 16 16 16 16 16 16 15 15 15 15 15 15 15 15 15 15 15 15 15 14 14
15 15 16 19 20 21 22 22 22 21 21 21 21 19 19 17 17 16 16 16 16 15 15 15 15 15 16 16 16 16 16 16 15 15 15 15 15 15 15 15 15 15 15 15 14 14 14 14 14
15 14 17 19 20 20 21 21 21 21 20 20 19 18 17 17 16 16 16 16 15 15 15 15 15 15 15 15 15 15 15 15 15 15 15 15 15 15 15 15 15 14 14 14 14 14 14 14 14
15 15 17 19 19 19 20 20 20 20 19 20 19 17 16 16 16 16 16 15 15 15 15 15 15 15 15 15 15 15 15 15 15 15 15 15 14 14 14 14 14 14 14 14 14 14 14 13 13
16 16 17 18 17 18 18 19 19 19 19 19 19 18 17 16 16 16 16 15 15 15 15 15 15 15 15 15 15 15 15 15 15 14 14 14 14 14 14 14 14 14 14 14 14 13 13 13 13
15 16 17 17 16 17 17 18 18 18 18 18 18 17 16 16 16 16 15 15 15 15 15 15 15 15 15 15 15 14 14 14 14 14 14 14 14 14 14 14 14 14 13 13 13 13 13 13 13
15 16 16 16 16 16 16 17 17 17 17 17 17 16 16 16 16 15 15 15 15 15 15 15 15 15 15 14 14 14 14 14 14 14 14 14 14 14 14 14 13 13 13 13 13 13 13 12 13
15 14 15 15 16 16 16 15 16 17 17 17 16 16 16 15 15 15 15 15 15 15 15 15 14 14 14 14 14 14 14 14 14 14 14 14 14 14 13 13 13 13 13 13 13 12 12 12 12
14 13 13 15 15 15 15 13 16 17 16 16 16 16 16 15 15 15 15 15 15 15 14 14 14 14 14 14 14 14 14 14 14 14 14 14 13 13 13 13 13 13 13 13 12 12 12 12 12
12 12 13 14 15 15 14 14 15 16 16 16 16 16 15 15 15 15 14 14 14 14 14 14 14 14 14 14 14 13 13 13 13 13 14 13 13 13 13 13 13 12 12 12 12 12 12 12 12
11 12 13 13 14 14 13 13 15 16 16 16 16 16 15 15 14 14 14 14 14 14 14 14 14 14 14 14 13 13 13 13 13 13 13 13 13 13 13 13 12 12 12 12 12 12 12 12 12
12 12 13 14 14 14 13 13 14 14 15 15 15 15 15 14 14 14 13 14 14 13 14 14 14 14 13 13 13 13 13 13 12 13 13 13 13 13 12 12 12 12 12 12 12 12 12 11 11
11 11 12 13 14 13 12 13 13 14 14 14 15 15 14 14 13 13 13 13 13 13 13 13 13 13 13 13 13 13 13 12 12 12 12 12 12 12 12 12 12 12 12 11 11 11 11 11 11
10 10 11 11 12 12 12 11 12 13 14 14 14 14 14 13 13 12 12 12 12 12 13 13 13 13 13 13 12 12 12 12 12 12 12 12 12 12 12 12 12 11 11 11 11 11 11 11 10
10 11 11 11 10 10 11 9 12 13 13 13 13 13 13 12 12 12 11 11 11 12 12 12 13 13 12 12 12 12 12 12 12 12 12 12 11 12 12 12 11 11 11 11 11 11 11 10 10
10 11 11 10 10 9 10 9 10 13 12 12 12 13 12 12 11 11 11 11 11 11 11 12 12 12 12 12 12 12 11 11 11 11 11 11 11 11 11 11 11 11 11 11 11 10 10 10 10
10 10 10 9 9 8 9 9 10 12 12 12 12 12 12 11 11 10 10 10 10 10 10 11 11 11 11 11 11 11 11 11 11 11 11 11 11 11 11 11 11 11 11 10 10 10 10 10 9
9 7 7 7 7 8 10 10 10 11 12 11 11 11 11 10 10 9 9 9 9 9 10 10 10 10 10 11 11 11 11 11 11 11 10 10 10 10 11 10 10 10 10 10 10 10 9 9 9
7 7 7 7 7 8 10 9 10 10 10 11 10 10 9 9 9 8 8 8 8 8 9 9 9 9 10 10 10 10 10 10 10 10 10 10 10 10 10 10 10 10 10 9 9 9 9 9 8
7 7 8 7 8 8 8 9 9 10 9 9 9 9 8 8 8 7 7 7 7 7 8 8 8 8 9 9 9 9 10 9 9 10 9 9 9 9 9 9 9 9 9 9 9 9 9 8 8
7 7 7 6 7 8 8 8 8 7 8 8 8 8 7 7 7 7 7 7 7 7 7 7 7 7 8 8 9 9 9 9 9 9 9 9 9 9 9 9 9 9 8 8 8 8 8 8 8
6 6 6 6 7 7 8 8 8 7 7 7 7 7 6 6 6 6 6 6 6 6 6 6 6 6 7 7 8 8 8 8 8 8 8 8 8 8 8 8 8 8 8 8 7 7 7 7 7
6 6 6 5 6 7 7 6 7 7 7 7 6 6 6 5 5 5 6 6 6 6 6 6 6 6 6 6 7 7 7 7 7 7 7 7 8 7 7 7 7 7 7 7 7 7 6 6 6
Wind_Speed
11 12 8 3 4 5 9 8 5 2 1 4 6 4 4 5 5 8 5 10 16 16 18 18 18 17 17 16 16 15 14 14 14 14 13 13 13 13 13 13 14 14 14 14 14 14 14 14 13
10 9 5 4 5 7 8 10 7 2 5 5 4 4 4 6 9 9 6 12 16 17 17 18 19 18 17 16 16 15 14 14 13 13 13 13 13 13 13 13 14 13 13 13 14 13 13 13 12
10 9 4 4 6 8 6 6 6 5 8 4 2 1 2 5 8 7 9 13 15 16 17 19 19 18 17 16 16 15 14 14 13 13 13 13 13 13 13 13 13 13 12 13 13 13 13 12 11
5 4 5 7 12 10 7 0 5 6 6 3 4 4 4 6 5 8 11 13 15 15 17 19 19 18 17 16 16 15 14 14 13 13 13 13 13 13 12 12 12 12 12 12 12 12 12 12 11
5 4 6 9 14 11 7 1 4 5 6 6 4 4 6 4 9 11 10 13 14 15 17 18 19 18 17 16 15 15 14 14 13 13 13 12 12 12 12 12 12 12 12 12 11 11 11 11 10
4 5 7 11 13 11 7 3 3 3 5 7 5 4 5 7 9 9 9 11 13 15 16 17 17 17 16 16 15 15 14 13 13 13 12 12 12 12 12 11 11 11 11 11 11 10 10 9 9
5 5 9 11 10 9 7 5 5 4 5 5 3 4 7 8 8 8 9 10 12 14 14 14 15 15 15 15 15 14 14 13 13 12 12 12 12 11 11 11 10 10 10 10 10 9 9 8 7
4 4 9 12 11 8 5 4 4 3 2 3 2 3 7 9 9 8 9 9 11 12 12 12 14 14 13 13 15 14 14 13 12 12 12 12 11 11 11 10 10 9 9 9 9 8 7 7 6
4 5 8 10 9 5 3 4 3 2 1 2 4 5 11 14 10 9 9 9 9 10 10 10 10 11 13 13 13 14 13 13 12 11 11 11 10 9 9 9 9 9 8 8 7 7 6 6 4
6 7 10 6 5 3 1 3 4 2 3 3 6 10 13 12 10 10 10 11 11 10 9 8 9 9 10 11 12 11 11 11 10 10 10 9 8 8 9 10 9 8 7 6 5 5 4 3 3
7 8 8 7 6 5 2 1 3 4 5 5 8 12 12 11 10 9 9 10 10 10 9 8 8 8 8 7 8 8 8 8 9 9 9 8 8 8 8 8 7 7 6 5 4 4 3 3 3
9 10 9 6 4 3 3 2 2 3 1 2 6 11 12 11 10 9 9 8 9 9 8 7 8 7 7 7 6 6 6 5 5 7 8 7 5 5 5 5 6 5 5 5 4 3 3 2 2
13 9 8 4 3 3 3 4 3 3 1 3 5 9 10 9 8 8 7 7 7 8 8 7 7 7 6 6 5 5 5 5 6 6 6 7 5 4 4 4 4 4 4 4 3 2 2 1 1
8 8 7 5 5 4 4 6 5 4 3 4 5 6 7 8 8 7 7 8 8 8 7 7 8 8 7 5 5 4 5 5 6 6 5 7 6 5 4 3 3 3 3 3 2 2 1 1 1
7 7 8 8 7 5 3 7 8 6 4 5 6 6 7 7 7 7 7 7 7 7 7 6 7 7 7 6 5 5 5 6 5 5 6 6 6 5 4 3 2 2 3 3 2 1 1 1 1
8 8 8 8 9 6 6 8 7 6 5 6 6 6 6 6 7 6 6 6 7 8 7 6 7 7 6 6 5 5 5 5 5 5 6 6 6 6 5 3 2 3 3 2 1 1 1 1 1
8 9 10 7 9 7 8 7 5 6 6 6 6 6 6 6 6 6 6 6 7 8 8 6 6 7 6 6 5 5 5 5 5 5 5 5 5 5 5 3 2 3 3 2 1 1 1 1 1
8 9 10 10 8 8 9 7 4 4 5 6 6 6 6 6 5 5 5 5 6 6 7 6 6 6 6 5 4 4 4 4 5 5 4 5 4 5 4 3 3 3 2 1 1 1 1 1 1
6 9 10 8 5 8 9 9 7 5 5 6 6 5 6 5 5 5 5 5 5 6 6 6 6 6 6 5 5 4 3 3 3 4 5 5 4 4 4 3 2 2 2 2 2 2 2 1 1
8 8 8 3 2 4 6 9 8 7 7 7 6 5 5 4 5 5 6 5 5 5 5 5 5 6 6 5 4 3 4 3 3 3 4 4 4 4 4 3 3 2 2 2 2 2 1 0 1
9 7 5 3 1 3 4 6 8 6 6 5 4 3 4 5 5 5 5 5 4 4 5 5 5 5 6 5 5 5 4 3 2 2 2 2 3 4 4 4 3 2 2 2 2 2 2 1 1
7 6 4 3 2 3 5 4 6 7 6 7 7 5 4 4 4 4 4 4 4 3 3 4 5 5 5 6 6 7 5 4 3 3 3 2 3 4 4 3 3 2 2 2 2 2 2 2 1
4 2 2 4 4 3 5 4 5 8 8 8 7 6 4 4 4 4 3 4 4 4 3 4 5 5 5 5 6 6 5 4 3 4 4 3 2 2 3 3 3 2 2 2 2 1 1 1 1
2 1 1 3 3 5 8 7 5 5 8 7 5 5 5 4 4 4 4 4 4 4 3 3 4 4 5 5 5 6 6 5 5 5 4 3 2 1 2 2 3 3 2 2 2 1 1 1 1
2 3 2 3 5 6 6 6 4 1 3 5 5 5 5 5 4 4 4 4 4 4 3 3 4 4 3 4 4 5 6 6 6 5 4 4 3 2 2 2 2 2 2 2 2 1 1 1 1
5 5 4 3 4 3 4 5 1 2 5 6 6 6 5 5 5 4 4 3 3 3 3 3 4 4 3 3 3 4 5 4 4 4 4 4 3 3 2 2 2 3 3 3 2 1 0 0 0
3 5 3 1 2 2 4 3 1 3 5 5 5 6 5 5 5 4 4 3 3 3 3 3 4 4 3 3 3 3 3 3 4 4 3 3 2 3 3 3 3 3 3 3 2 1 0 0 1
2 2 1 2 3 4 4 5 3 4 3 3 3 4 5 4 4 3 3 3 3 3 3 3 4 4 4 3 3 3 3 4 4 4 4 3 3 3 4 3 3 2 2 2 2 1 1 0 1
2 3 2 3 3 2 3 1 2 3 4 4 3 4 4 4 3 2 3 3 3 3 3 3 3 4 4 4 3 3 3 3 4 4 4 3 3 3 3 3 3 2 2 1 1 0 0 0 1
2 2 2 2 3 2 1 1 3 5 5 4 4 4 4 4 3 3 3 3 4 4 3 3 3 4 4 4 3 3 4 4 4 4 4 4 4 3 3 3 3 2 2 2 1 1 1 0 1
Wind_Direction
280 266 247 242 233 230 237 240 240 198 90 40 30 17 36 32 46 110 158 128 122 128 133 135 131 130 128 126 123 120 118 115 113 111 108 105 102 100 99 98 97 94 92 90 88 86 84 84 83
273 258 245 235 234 228 229 223 233 174 96 69 50 25 37 69 81 108 130 121 126 127 131 134 131 130 128 126 125 123 120 118 117 114 111 109 107 104 101 99 97 96 94 91 90 88 86 85 84
263 252 235 226 232 231 238 198 183 114 100 111 123 44 34 77 101 117 123 125 123 124 128 130 131 130 129 128 127 126 124 122 120 117 114 110 108 106 102 100 99 98 96 95 92 88 87 86 85
246 226 242 240 241 242 257 260 104 124 124 145 149 115 76 40 73 111 125 131 125 124 124 131 131 131 130 129 128 127 127 126 124 121 117 113 109 107 104 101 101 100 98 96 94 92 88 86 85
241 231 226 235 243 245 253 107 103 156 158 170 189 137 100 71 92 114 134 133 129 125 124 132 132 133 132 131 130 129 127 126 124 122 120 117 114 110 107 103 102 101 100 98 96 95 91 86 83
228 234 227 228 235 235 231 173 158 197 178 165 175 160 108 118 113 127 135 130 127 124 127 132 131 134 135 134 133 132 130 129 127 124 123 120 118 114 111 108 106 105 102 101 100 98 94 90 84
239 239 242 242 234 228 216 175 180 211 193 164 166 145 127 131 127 136 132 126 121 123 129 134 136 134 134 136 136 135 133 132 130 127 125 123 121 118 115 112 110 109 107 105 103 101 99 95 89
258 265 244 245 243 231 195 174 173 208 202 128 136 146 142 141 139 139 127 120 120 127 133 138 141 140 136 136 139 138 137 135 134 132 130 126 123 121 119 118 115 112 112 111 108 106 103 101 95
260 248 238 235 246 242 166 164 145 43 22 55 62 55 119 131 136 135 129 124 129 135 140 142 141 140 140 141 143 143 142 141 138 138 139 135 129 129 127 127 123 120 118 117 116 116 113 111 106
215 233 236 256 290 298 186 155 139 162 195 159 106 98 116 132 143 150 151 149 149 151 151 148 143 139 140 142 141 147 148 149 147 147 146 145 140 137 131 133 133 131 129 128 127 127 131 141 147
208 234 248 272 326 346 347 209 179 187 209 193 152 140 140 147 155 162 164 157 155 153 149 149 142 136 136 135 141 143 146 151 153 153 153 147 139 134 131 133 138 143 147 146 143 146 164 171 159
231 239 253 268 317 326 304 285 239 231 227 82 133 144 148 158 165 170 169 160 153 151 151 149 140 137 137 134 135 138 141 145 145 155 158 145 133 131 135 138 149 153 159 157 160 172 187 184 161
236 238 245 262 287 285 282 275 266 244 262 66 110 142 159 170 172 171 164 156 151 152 153 151 144 142 139 133 137 138 136 140 142 143 148 140 132 135 136 135 143 151 150 152 159 169 170 149 121
234 240 243 244 241 246 247 260 259 249 183 147 156 166 170 172 174 169 164 161 160 157 156 151 149 145 140 141 145 136 134 136 136 136 141 139 136 133 131 125 125 129 138 149 162 160 126 102 79
251 241 236 229 223 217 226 247 232 231 198 184 178 175 173 176 172 172 171 161 156 151 150 153 150 145 145 147 143 132 137 135 127 139 145 137 132 129 123 123 127 137 143 144 133 104 96 86 71
233 228 223 213 204 201 202 239 221 206 190 194 191 184 175 179 179 175 165 159 154 149 151 155 151 150 148 141 135 132 133 125 127 133 138 138 132 125 114 115 126 119 110 94 91 89 69 54 24
210 217 216 209 198 197 212 242 220 191 190 201 198 186 177 175 176 169 162 158 153 151 151 153 148 148 143 137 136 131 124 117 120 119 117 128 131 129 122 118 117 112 98 87 91 70 79 55 3
203 214 219 215 190 203 221 238 239 202 204 213 209 191 177 174 172 154 143 137 139 142 144 148 145 141 133 128 126 122 117 113 111 113 114 126 129 131 129 120 123 119 115 115 108 100 72 65 351
241 231 228 227 195 204 219 233 239 224 214 222 217 194 177 172 157 138 133 133 130 134 139 147 147 145 137 139 139 134 133 125 113 114 121 128 130 130 124 119 123 117 136 149 141 114 104 66 44
257 253 240 231 185 209 224 242 243 233 218 212 210 192 172 159 150 143 135 135 139 144 147 149 149 148 146 146 145 140 135 128 121 108 109 116 127 136 137 130 133 132 143 142 138 128 119 119 95
242 243 239 216 248 242 240 253 228 225 212 197 202 194 163 164 159 149 141 136 136 139 151 154 151 151 144 137 127 119 105 101 105 124 130 116 125 129 126 129 128 137 151 162 160 147 140 162 207
237 240 244 218 187 224 202 235 232 204 205 197 191 192 164 156 153 151 146 144 144 140 143 149 147 145 146 141 142 146 148 151 161 152 142 130 120 126 127 122 127 136 142 155 162 148 157 160 190
249 262 227 236 229 244 219 224 245 201 200 200 185 175 159 148 147 145 139 135 126 119 127 135 135 139 143 150 153 152 148 147 136 133 133 130 115 120 129 130 126 128 129 145 146 144 154 155 166
244 87 277 256 229 232 213 207 241 210 191 183 177 157 140 125 124 125 119 112 112 114 117 120 128 132 146 153 154 151 148 145 143 142 145 142 130 122 130 131 126 121 119 137 142 150 155 155 164
183 144 162 196 206 226 201 206 228 193 148 149 145 125 112 108 105 113 108 106 110 122 127 127 127 129 136 148 154 151 153 158 158 151 153 149 143 139 158 124 121 118 117 111 100 109 131 162 187
206 193 188 195 202 218 186 209 213 89 91 98 105 104 94 84 88 94 99 102 109 123 133 138 137 136 139 142 142 143 147 151 148 144 147 150 150 151 154 132 115 112 108 103 99 93 151 239 249
195 223 256 287 278 216 202 195 143 85 85 91 94 101 99 85 76 80 90 93 109 133 143 147 142 137 136 132 124 123 127 123 125 126 123 128 124 133 136 134 121 114 111 112 115 121 193 266 261
228 223 207 195 214 226 204 199 189 161 144 119 105 104 99 90 78 75 82 86 90 116 131 133 132 133 128 122 124 118 114 114 115 116 117 116 107 111 126 129 126 122 122 126 134 148 165 188 286
189 201 210 212 232 222 207 193 35 136 130 119 106 109 113 110 100 84 75 77 82 91 107 117 120 120 118 116 111 103 101 105 107 110 108 108 103 105 108 118 120 110 97 104 113 117 129 168 308
223 218 203 201 241 248 247 249 12 84 83 92 90 96 93 90 82 80 81 81 79 85 91 103 114 119 118 115 109 105 99 99 100 101 97 95 97 100 105 102 106 103 93 85 89 68 16 301 286
Height
1495 1497 1499 1503 1505 1504 1498 1483 1473 1473 1474 1476 1478 1479 1482 1487 1492 1505 1505 1506 1506 1507 1511 1514 1517 1520 1522 1524 1526 1528 1530 1531 1533 1534 1535 1536 1537 1538 1539 1540 1541 1542 1542 1543 1543 1544 1545 1545 1546
1495 1498 1502 1502 1502 1503 1492 1479 1475 1473 1476 1479 1481 1483 1485 1491 1495 1499 1503 1505 1506 1508 1511 1514 1517 1520 1522 1525 1527 1529 1531 1532 1534 1535 1536 1537 1538 1539 1540 1541 1542 1543 1543 1544 1545 1545 1546 1546 1547
1494 1498 1501 1498 1495 1493 1483 1471 1472 1473 1477 1481 1484 1486 1489 1494 1497 1499 1503 1505 1507 1509 1511 1514 1518 1520 1523 1525 1527 1530 1531 1533 1534 1536 1537 1538 1539 1540 1541 1542 1543 1544 1544 1545 1546 1546 1547 1547 1548
1495 1499 1498 1495 1490 1480 1474 1470 1470 1475 1479 1482 1485 1489 1492 1496 1498 1500 1503 1505 1507 1509 1512 1515 1518 1521 1523 1526 1528 1530 1532 1534 1535 1536 1538 1539 1540 1541 1542 1543 1544 1545 1545 1546 1547 1547 1548 1548 1549
1495 1496 1495 1492 1485 1475 1470 1470 1472 1475 1479 1482 1485 1488 1493 1497 1498 1500 1503 1506 1508 1510 1512 1515 1518 1521 1524 1526 1529 1531 1532 1534 1536 1537 1538 1540 1541 1542 1543 1544 1545 1545 1546 1547 1547 1548 1549 1549 1550
1495 1491 1492 1490 1481 1473 1470 1471 1474 1475 1479 1481 1484 1488 1494 1496 1498 1501 1504 1507 1509 1510 1512 1516 1519 1522 1524 1526 1529 1531 1533 1535 1536 1538 1539 1540 1541 1543 1544 1545 1545 1546 1547 1548 1548 1549 1550 1550 1551
1492 1489 1486 1480 1477 1473 1469 1470 1473 1476 1478 1481 1483 1487 1493 1496 1498 1501 1504 1507 1509 1510 1513 1516 1519 1521 1524 1527 1529 1531 1533 1535 1536 1538 1539 1541 1542 1543 1544 1545 1546 1547 1548 1548 1549 1550 1550 1551 1552
1488 1487 1482 1478 1474 1471 1468 1470 1473 1476 1478 1481 1483 1486 1491 1494 1497 1501 1504 1507 1509 1511 1514 1516 1519 1521 1524 1526 1529 1531 1533 1535 1536 1538 1540 1541 1542 1543 1544 1545 1546 1547 1548 1549 1550 1550 1551 1552 1552
1487 1488 1482 1475 1472 1469 1467 1470 1474 1477 1479 1481 1483 1485 1487 1492 1496 1500 1503 1506 1509 1511 1514 1516 1518 1521 1523 1526 1528 1531 1533 1535 1536 1538 1539 1541 1542 1543 1545 1546 1547 1548 1548 1549 1550 1551 1551 1552 1553
1484 1484 1476 1471 1468 1468 1468 1471 1474 1478 1480 1482 1485 1487 1489 1492 1495 1499 1502 1504 1507 1510 1513 1516 1518 1520 1523 1525 1528 1530 1532 1534 1536 1538 1539 1541 1542 1543 1544 1546 1547 1548 1549 1549 1550 1551 1551 1552 1552
1479 1477 1474 1471 1470 1470 1471 1473 1475 1478 1481 1482 1484 1486 1489 1492 1495 1498 1502 1504 1507 1510 1512 1515 1518 1520 1522 1524 1527 1529 1531 1533 1535 1537 1539 1540 1542 1543 1544 1545 1546 1547 1548 1549 1550 1551 1551 1552 1552
1474 1473 1473 1472 1472 1473 1474 1474 1476 1478 1480 1481 1482 1484 1488 1491 1494 1497 1501 1504 1506 1509 1511 1514 1517 1519 1521 1523 1526 1528 1530 1532 1534 1536 1538 1540 1541 1542 1543 1545 1546 1547 1548 1549 1549 1550 1551 1551 1552
1472 1472 1472 1473 1474 1474 1475 1475 1477 1478 1480 1480 1482 1484 1487 1490 1494 1497 1500 1503 1505 1507 1510 1512 1515 1518 1520 1522 1525 1527 1529 1531 1534 1535 1537 1539 1540 1541 1543 1544 1545 1546 1547 1548 1549 1550 1550 1551 1552
1470 1471 1472 1472 1473 1475 1476 1476 1477 1477 1479 1480 1482 1484 1486 1489 1492 1495 1498 1500 1503 1505 1508 1511 1514 1516 1518 1521 1523 1526 1528 1530 1532 1534 1536 1538 1539 1540 1542 1543 1544 1545 1546 1547 1548 1549 1549 1550 1550
1470 1471 1471 1471 1472 1474 1476 1477 1476 1476 1478 1479 1481 1483 1485 1488 1490 1493 1496 1498 1500 1503 1506 1509 1512 1514 1517 1519 1522 1524 1526 1528 1531 1533 1534 1536 1538 1539 1540 1542 1543 1544 1545 1546 1547 1548 1548 1549 1549
1469 1471 1473 1468 1470 1472 1478 1479 1474 1474 1476 1477 1480 1482 1484 1486 1489 1491 1494 1496 1499 1501 1504 1507 1510 1512 1515 1517 1520 1522 1525 1527 1529 1531 1532 1534 1536 1537 1539 1540 1541 1543 1544 1545 1545 1546 1547 1547 1547
1468 1471 1470 1469 1467 1469 1474 1475 1471 1472 1474 1475 1477 1479 1482 1484 1487 1489 1491 1494 1496 1499 1501 1504 1507 1510 1512 1515 1518 1520 1523 1525 1527 1529 1531 1532 1534 1535 1537 1539 1540 1541 1542 1543 1544 1544 1545 1545 1545
1468 1467 1466 1466 1465 1468 1472 1472 1470 1470 1472 1473 1475 1477 1479 1482 1484 1486 1489 1491 1494 1496 1499 1502 1505 1507 1510 1513 1515 1518 1520 1522 1525 1527 1528 1530 1532 1533 1535 1536 1538 1539 1540 1541 1542 1542 1543 1543 1543
1464 1464 1464 1462 1461 1466 1469 1470 1469 1469 1470 1471 1472 1475 1477 1479 1482 1484 1486 1489 1491 1493 1496 1499 1502 1505 1507 1510 1512 1515 1518 1520 1522 1524 1526 1528 1530 1531 1533 1534 1536 1537 1538 1539 1539 1540 1541 1541 1541
1464 1466 1463 1463 1461 1465 1468 1468 1466 1465 1466 1468 1470 1472 1474 1477 1479 1482 1484 1486 1489 1491 1493 1496 1499 1502 1505 1508 1510 1513 1516 1518 1520 1522 1524 1526 1528 1529 1531 1532 1533 1535 1536 1537 1537 1538 1538 1539 1539
1464 1466 1464 1465 1465 1465 1468 1469 1465 1462 1463 1465 1468 1470 1472 1474 1477 1479 1481 1484 1486 1488 1491 1493 1496 1499 1502 1505 1508 1510 1513 1516 1518 1520 1522 1524 1525 1527 1528 1530 1531 1532 1533 1534 1535 1536 1536 1536 1537
1465 1462 1462 1465 1471 1473 1469 1479 1464 1460 1462 1462 1465 1468 1469 1472 1475 1477 1479 1481 1483 1486 1488 1490 1493 1496 1499 1502 1505 1507 1510 1512 1515 1517 1519 1521 1523 1525 1526 1527 1529 1530 1531 1532 1532 1533 1534 1534 1534
1463 1461 1464 1467 1470 1474 1470 1476 1467 1456 1460 1461 1462 1465 1468 1470 1473 1475 1477 1479 1481 1484 1486 1488 1490 1493 1496 1499 1502 1505 1507 1510 1513 1515 1517 1519 1520 1522 1523 1525 1526 1527 1528 1529 1530 1530 1531 1531 1531
1462 1464 1466 1468 1471 1478 1468 1471 1467 1456 1455 1458 1460 1463 1466 1469 1471 1473 1475 1478 1479 1481 1483 1485 1487 1490 1493 1496 1499 1502 1504 1507 1509 1511 1514 1516 1517 1519 1520 1522 1523 1524 1525 1526 1527 1527 1528 1528 1528
1464 1471 1477 1478 1477 1473 1459 1463 1462 1453 1452 1455 1458 1462 1465 1468 1470 1471 1473 1475 1477 1479 1480 1482 1485 1487 1490 1493 1496 1499 1501 1504 1506 1508 1511 1513 1514 1515 1517 1519 1520 1521 1522 1523 1524 1524 1525 1525 1525
1466 1468 1474 1476 1473 1466 1459 1463 1460 1454 1453 1455 1459 1462 1465 1467 1469 1470 1472 1473 1475 1477 1478 1480 1482 1485 1487 1490 1493 1496 1499 1501 1504 1506 1508 1510 1511 1512 1514 1516 1517 1518 1519 1520 1521 1521 1522 1522 1522
1466 1467 1464 1469 1466 1467 1464 1459 1458 1455 1456 1457 1460 1462 1465 1467 1469 1470 1471 1472 1474 1475 1477 1478 1480 1482 1485 1488 1490 1493 1496 1498 1500 1503 1505 1507 1509 1510 1511 1513 1514 1515 1516 1517 1518 1518 1519 1519 1519
1465 1465 1468 1472 1471 1467 1460 1460 1462 1461 1460 1461 1462 1463 1466 1468 1469 1470 1471 1472 1473 1474 1476 1478 1479 1481 1483 1485 1488 1490 1493 1495 1498 1500 1502 1504 1506 1507 1509 1510 1511 1512 1513 1514 1515 1515 1516 1516 1516
1467 1468 1468 1468 1467 1467 1465 1466 1458 1459 1460 1461 1463 1464 1466 1468 1469 1470 1471 1472 1473 1474 1475 1476 1478 1479 1481 1483 1486 1488 1490 1493 1495 1497 1499 1501 1503 1504 1506 1507 1508 1509 1510 1511 1512 1512 1512 1512 1512
1465 1467 1469 1473 1469 1464 1466 1471 1460 1460 1461 1462 1464 1465 1467 1468 1469 1470 1470 1471 1472 1473 1474 1475 1476 1478 1480 1482 1484 1486 1489 1491 1493 1495 1497 1499 1500 1502 1503 1505 1506 1507 1508 1508 1508 1509 1509 1509 1509